Weather History for Cavalier, ND

Change the Weather History Date:

Friday, July 19, 2013

  Actual Average (KGAF) Record (KGAF)
Temperature  
Mean Temperature 70 °F -  
Max Temperature 80 °F 82 °F 98 °F (1964)
Min Temperature 59 °F 57 °F 40 °F (1951)
Cooling Degree Days 4    
Growing Degree Days 20 (Base 50)    
Moisture  
Dew Point 58 °F    
Average Humidity 69    
Maximum Humidity 94    
Minimum Humidity 45    
Precipitation  
Precipitation 0.00 in - - ()
Sea Level Pressure  
Sea Level Pressure 29.84 in    
Wind  
Wind Speed 12 mph (NW)    
Max Wind Speed 17 mph    
Max Gust Speed 24 mph    
Visibility 10 miles    
Events      
Averages and records for this station are not official NWS values.
T = Trace of Precipitation, MM = Missing Value Source: NWS Daily Summary

Daily Weather History Graph

Daily Weather History Graph

Search for Another Location

Airport:

Trip Planner

Search our weather history database for the weather conditions in past years. The results will help you decide how hot, cold, wet, or windy it might be!

Date:

Astronomy

Jul. 19, 2013 Rise Set
Actual Time 5:48 AM CDT 9:24 PM CDT
Civil Twilight 5:08 AM CDT 10:04 PM CDT
Nautical Twilight 4:15 AM CDT 10:57 PM CDT
Astronomical Twilight 2:59 AM CDT 12:11 AM CDT
Moon 6:28 PM CDT (7/19) 2:32 AM CDT (7/19)
Length of Visible Light 16h 55m
Length of Day
15h 36m
Waxing Gibbous, 87% of the Moon is Illuminated
Jul 19
Waxing Gibbous
Jul 22
Full
Jul 29
Last Quarter
Aug 6
New
Aug 14
First Quarter

Hourly Weather History & Observations

Time (CDT) Temp. Heat Index Dew Point Humidity Pressure Visibility Wind Dir Wind Speed Gust Speed Precip Events Conditions
12:15 AM 66.2 °F - 62.6 °F 88% 29.72 in 10.0 mi NW 16.1 mph 20.7 mph N/A   Scattered Clouds
12:35 AM 66.2 °F - 62.6 °F 88% 29.73 in 10.0 mi NW 12.7 mph 18.4 mph N/A   Mostly Cloudy
12:55 AM 66.2 °F - 62.6 °F 88% 29.74 in 10.0 mi NW 16.1 mph 23.0 mph N/A   Partly Cloudy
1:15 AM 64.4 °F - 62.6 °F 94% 29.75 in 10.0 mi NW 16.1 mph 20.7 mph N/A   Partly Cloudy
1:35 AM 64.4 °F - 62.6 °F 94% 29.75 in 10.0 mi NW 15.0 mph 19.6 mph N/A   Clear
1:55 AM 64.4 °F - 60.8 °F 88% 29.76 in 10.0 mi NW 12.7 mph 23.0 mph N/A   Clear
2:15 AM 64.4 °F - 60.8 °F 88% 29.77 in 10.0 mi NW 17.3 mph 24.2 mph N/A   Clear
2:35 AM 64.4 °F - 60.8 °F 88% 29.78 in 10.0 mi NW 12.7 mph - N/A   Clear
2:55 AM 64.4 °F - 59.0 °F 83% 29.78 in 10.0 mi NW 12.7 mph 20.7 mph N/A   Clear
3:15 AM 64.4 °F - 59.0 °F 83% 29.79 in 10.0 mi NW 11.5 mph 16.1 mph N/A   Clear
3:35 AM 62.6 °F - 59.0 °F 88% 29.79 in 10.0 mi NW 11.5 mph - N/A   Clear
3:55 AM 62.6 °F - 57.2 °F 82% 29.79 in 10.0 mi WNW 10.4 mph - N/A   Clear
4:15 AM 62.6 °F - 57.2 °F 82% 29.80 in 10.0 mi WNW 9.2 mph - N/A   Clear
4:35 AM 62.6 °F - 59.0 °F 88% 29.80 in 10.0 mi WNW 10.4 mph - N/A   Clear
4:55 AM 62.6 °F - 59.0 °F 88% 29.79 in 10.0 mi WNW 10.4 mph - N/A   Clear
5:15 AM 62.6 °F - 59.0 °F 88% 29.80 in 10.0 mi WNW 10.4 mph - N/A   Clear
5:35 AM 62.6 °F - 59.0 °F 88% 29.81 in 10.0 mi WNW 10.4 mph - N/A   Clear
5:55 AM 62.6 °F - 59.0 °F 88% 29.81 in 10.0 mi WNW 8.1 mph - N/A   Clear
6:15 AM 62.6 °F - 59.0 °F 88% 29.82 in 10.0 mi WNW 8.1 mph - N/A   Clear
6:35 AM 62.6 °F - 59.0 °F 88% 29.83 in 10.0 mi WNW 8.1 mph - N/A   Clear
6:55 AM 62.6 °F - 59.0 °F 88% 29.83 in 10.0 mi WNW 9.2 mph - N/A   Clear
7:15 AM 64.4 °F - 59.0 °F 83% 29.83 in 10.0 mi WNW 9.2 mph - N/A   Clear
7:35 AM 64.4 °F - 59.0 °F 83% 29.83 in 10.0 mi West 8.1 mph - N/A   Clear
7:55 AM 66.2 °F - 59.0 °F 78% 29.84 in 10.0 mi WNW 9.2 mph - N/A   Clear
8:15 AM 66.2 °F - 59.0 °F 78% 29.83 in 10.0 mi West 8.1 mph - N/A   Clear
8:35 AM 66.2 °F - 60.8 °F 83% 29.84 in 10.0 mi West 9.2 mph - N/A   Clear
8:55 AM 68.0 °F - 60.8 °F 78% 29.84 in 10.0 mi West 10.4 mph - N/A   Clear
9:15 AM 69.8 °F - 62.6 °F 78% 29.84 in 10.0 mi WNW 8.1 mph - N/A   Clear
9:35 AM 71.6 °F - 62.6 °F 73% 29.84 in 10.0 mi WNW 6.9 mph - N/A   Clear
9:55 AM 71.6 °F - 62.6 °F 73% 29.84 in 10.0 mi West 9.2 mph - N/A   Clear
10:15 AM 73.4 °F - 62.6 °F 69% 29.84 in 10.0 mi West 12.7 mph - N/A   Clear
10:35 AM 73.4 °F - 64.4 °F 73% 29.84 in 10.0 mi West 11.5 mph - N/A   Clear
10:55 AM 75.2 °F - 62.6 °F 65% 29.84 in 10.0 mi WNW 15.0 mph 20.7 mph N/A   Clear
11:15 AM 75.2 °F - 62.6 °F 65% 29.84 in 10.0 mi WNW 15.0 mph 21.9 mph N/A   Clear
11:35 AM 75.2 °F - 62.6 °F 65% 29.84 in 10.0 mi WNW 12.7 mph 18.4 mph N/A   Clear
11:55 AM 77.0 °F - 59.0 °F 54% 29.84 in 10.0 mi WNW 16.1 mph - N/A   Clear
12:15 PM 77.0 °F - 59.0 °F 54% 29.85 in 10.0 mi WNW 16.1 mph 19.6 mph N/A   Clear
12:35 PM 77.0 °F - 59.0 °F 54% 29.85 in 10.0 mi NW 9.2 mph - N/A   Clear
12:55 PM 77.0 °F - 57.2 °F 50% 29.84 in 10.0 mi NW 11.5 mph - N/A   Clear
1:15 PM 77.0 °F - 57.2 °F 50% 29.84 in 10.0 mi NW 11.5 mph 19.6 mph N/A   Clear
1:35 PM 78.8 °F - 57.2 °F 47% 29.84 in 10.0 mi WNW 16.1 mph 23.0 mph N/A   Clear
1:55 PM 78.8 °F - 57.2 °F 47% 29.85 in 10.0 mi West 17.3 mph 23.0 mph N/A   Partly Cloudy
2:15 PM 78.8 °F - 57.2 °F 47% 29.85 in 10.0 mi WNW 13.8 mph - N/A   Partly Cloudy
2:35 PM 78.8 °F - 57.2 °F 47% 29.84 in 10.0 mi WNW 15.0 mph 20.7 mph N/A   Partly Cloudy
2:55 PM 78.8 °F - 57.2 °F 47% 29.84 in 10.0 mi NW 11.5 mph 18.4 mph N/A   Partly Cloudy
3:15 PM 80.6 °F 80.8 °F 57.2 °F 45% 29.83 in 10.0 mi NW 16.1 mph 21.9 mph N/A   Partly Cloudy
3:35 PM 78.8 °F - 57.2 °F 47% 29.83 in 10.0 mi WNW 12.7 mph - N/A   Partly Cloudy
3:55 PM 77.0 °F - 55.4 °F 47% 29.84 in 10.0 mi NW 15.0 mph 20.7 mph N/A   Clear
4:15 PM 77.0 °F - 57.2 °F 50% 29.83 in 10.0 mi NW 11.5 mph - N/A   Clear
4:35 PM 77.0 °F - 57.2 °F 50% 29.83 in 10.0 mi NW 10.4 mph - N/A   Scattered Clouds
4:55 PM 75.2 °F - 59.0 °F 57% 29.84 in 10.0 mi North 9.2 mph - N/A   Scattered Clouds
5:15 PM 75.2 °F - 57.2 °F 53% 29.84 in 10.0 mi North 6.9 mph - N/A   Scattered Clouds
5:35 PM 73.4 °F - 57.2 °F 57% 29.84 in 10.0 mi NE 10.4 mph - N/A   Scattered Clouds
5:55 PM 73.4 °F - 57.2 °F 57% 29.85 in 10.0 mi North 10.4 mph - N/A   Clear
6:15 PM 73.4 °F - 57.2 °F 57% 29.84 in 10.0 mi NNE 9.2 mph - N/A   Scattered Clouds
6:35 PM 73.4 °F - 55.4 °F 53% 29.84 in 10.0 mi North 6.9 mph - N/A   Partly Cloudy
6:55 PM 73.4 °F - 55.4 °F 53% 29.86 in 10.0 mi North 11.5 mph - N/A   Clear
7:15 PM 71.6 °F - 55.4 °F 57% 29.86 in 10.0 mi North 8.1 mph - N/A   Clear
7:35 PM 69.8 °F - 55.4 °F 60% 29.87 in 10.0 mi North 9.2 mph - N/A   Clear
7:55 PM 68.0 °F - 53.6 °F 60% 29.88 in 10.0 mi North 10.4 mph 16.1 mph N/A   Clear
8:15 PM 68.0 °F - 53.6 °F 60% 29.88 in 10.0 mi North 9.2 mph - N/A   Clear
8:35 PM 66.2 °F - 50.0 °F 56% 29.89 in 10.0 mi North 9.2 mph - N/A   Clear
8:55 PM 66.2 °F - 50.0 °F 56% 29.89 in 10.0 mi North 9.2 mph - N/A   Clear
9:15 PM 64.4 °F - 51.8 °F 64% 29.90 in 10.0 mi North 9.2 mph - N/A   Clear
9:35 PM 64.4 °F - 51.8 °F 64% 29.92 in 10.0 mi North 10.4 mph - N/A   Clear
9:55 PM 62.6 °F - 53.6 °F 72% 29.93 in 10.0 mi NNE 12.7 mph 20.7 mph N/A   Clear
10:15 PM 62.6 °F - 51.8 °F 68% 29.94 in 10.0 mi NNE 10.4 mph 18.4 mph N/A   Clear
10:35 PM 60.8 °F - 51.8 °F 72% 29.96 in 10.0 mi NE 9.2 mph 17.3 mph N/A   Partly Cloudy
10:55 PM 59.0 °F - 50.0 °F 72% 29.96 in 10.0 mi NNE 8.1 mph - N/A   Mostly Cloudy
11:15 PM 59.0 °F - 50.0 °F 72% 29.97 in 10.0 mi NE 10.4 mph 16.1 mph N/A   Overcast
11:35 PM 59.0 °F - 50.0 °F 72% 29.98 in 10.0 mi NE 9.2 mph - N/A   Overcast
11:55 PM 59.0 °F - 50.0 °F 72% 29.98 in 10.0 mi NE 6.9 mph - N/A   Mostly Cloudy